Regional Weather Roundup
Issued by NWS Wakefield, VA

Home | Current Version | Previous Version | Text Only | Print | Product List | Glossary On
Versions: 1 2 3 4 5 6 7 8 9 10 11 12 13 14 15 16 17 18 19 20 21 22 23 24 25 26 27 28 29 30 31 32 33 34 35 36 37 38 39 40 41 42 43 44 45 46 47 48 49
000
ASUS41 KAKQ 281715
RWRAKQ

REGIONAL WEATHER ROUNDUP
NATIONAL WEATHER SERVICE WAKEFIELD VA
100 PM EDT SUN AUG 28 2016

Note: "fair" indicates few or no clouds below 12,000 feet with no
significant weather and/or obstructions to visibility. * = Denotes
station may not report precipitation (e.g., rain,snow,etc.),
thunder or fog.

VAZ042-051-052>054-056-281800-
NORTHERN VIRGINIA

CITY           SKY/WX    TMP DP  RH WIND       PRES   REMARKS
WASH NATIONAL  MOSUNNY   87  65  47 VRB3      30.23F
DULLES         MOSUNNY   86  66  51 VRB3      30.23F
FORT BELVOIR   SUNNY     86  67  51 VRB2      30.23F
QUANTICO       SUNNY     86  67  52 VRB5      30.24
FREDERICKSBRG*   N/A     87  67  50 NE6       30.22S
STAFFORD*      SUNNY     87  65  49 E7        30.27F
WARRENTON      SUNNY     88  63  43 E3        30.24S
CULPEPER*      SUNNY     87  70  57 CALM      30.24S
MANASSAS*      SUNNY     86  66  51 VRB3      30.24F
LEESBURG*      MOSUNNY   86  70  58 CALM      30.25F
WINCHESTER     SUNNY     88  63  42 SE8       30.25S
FRONT ROYAL*   FAIR      86  68  54 CALM      30.24F
LURAY*         FAIR      86  61  42 CALM      30.25F
$$

VAZ048-049-060>072-079>083-281800-
CENTRAL AND SOUTH CENTRAL VIRGINIA

CITY           SKY/WX    TMP DP  RH WIND       PRES   REMARKS
RICHMOND       MOSUNNY   87  66  49 NE7       30.22S
CHESTERFIELD*  FAIR      88  57  35 E10       30.23F
PETERSBURG*    MOSUNNY   89  63  41 NE8       30.22F
HANOVER        MOSUNNY   84  66  54 VRB6      30.24F
TAPPAHANNOCK*  MOSUNNY   85  66  53 NE6       30.23F
QUINTON*       PTSUNNY   85  69  58 N6        30.22S
CHARLOTTSVILLE SUNNY     89  65  44 E7        30.25S
GORDONSVILLE*  FAIR      84  70  61 CALM      30.23F
ORANGE*          N/A     86  68  54 CALM      30.26S
LOUISA*        SUNNY     88  70  55 CALM      30.23F
BUMPASS*       FAIR      85  69  60 CALM      30.23F
FARMVILLE*     SUNNY     86  65  50 N8        30.22S
CREWE*         FAIR      86  67  53 N6        30.22F
FORT PICKETT*  NOT AVBL
CHASE CITY*    FAIR      85  64  48 CALM      30.22S
CLARKSVILLE*   FAIR      86  68  54 E3        30.21F
SOUTH HILL*    SUNNY     85  69  57 NE5       30.27S
LAWRENCEVILLE* FAIR      86  68  53 NE5       30.20F
EMPORIA*       MOSUNNY   86  68  54 N6        30.22S
$$

VAZ088>098-281800-
SOUTHEAST VIRGINIA

CITY           SKY/WX    TMP DP  RH WIND       PRES   REMARKS
NORFOLK        SUNNY     84  74  71 NE14      30.20S
VIRGINIA BEACH MOSUNNY   91  74  57 NE10G22   30.19R HX 100
NORFOLK NAVAL  PTSUNNY   86  72  62 E12G20    30.22R
WEST POINT*    MOSUNNY   87  66  48 N7        30.23S
SALUDA*        FAIR      83  73  72 E7        30.22R
NEWPORT NEWS   MOSUNNY   85  71  63 E14       30.21R
LANGLEY AFB    MOSUNNY   85  72  64 NE13      30.20S
FORT EUSTIS    MOSUNNY   90  69  48 E7        30.18S
WILLIAMSBURG*  SUNNY     91  70  49 NE3       30.21S HX  97
HR EXEC AP*    FAIR      88  72  58 NE13      30.21S
FRANKLIN*      MOSUNNY   88  69  53 NE8       30.20S
US460-WAKEFLD  MOSUNNY   87  66  49 N9        30.20S
$$

VAZ020-022-025-037-045-281800-
WEST CENTRAL AND SOUTHWEST VIRGINIA

CITY           SKY/WX    TMP DP  RH WIND       PRES   REMARKS
STAUNTON*      SUNNY     83  63  50 CALM      30.28F
WAYNESBORO*    FAIR      83  62  48 SE6       30.28F
HOT SPRINGS VA MOSUNNY   77  66  68 NE5       30.39F
LYNCHBURG      SUNNY     85  63  47 N5        30.26F
DANVILLE       SUNNY     85  65  51 NE10      30.23F
SOUTH BOSTON*  FAIR      87  65  49 N3        30.22F
MARTINSVILLE   SUNNY     84  67  56 NE6       30.27F
ROANOKE        MOSUNNY   86  65  49 N5        30.27F
BLACKSBURG     SUNNY     83  66  57 E7        30.33F
DUBLIN*        MOSUNNY   81  69  67 N3        30.32F
MARION*        MOSUNNY   83  69  63 NE3       30.35F
HILLSVILLE*    PTSUNNY   80  70  72 E6        30.32F
RICHLANDS*     PTSUNNY   82  71  68 CALM      30.32F
WISE*          MOSUNNY   86  61  42 S6        30.32F
ABINGDON*      MOSUNNY   86  70  57 E9        30.28F
$$

MDZ021>025-VAZ099-100-281800-
SOUTHERN MARYLAND AND THE DELMARVA PENINSULA

CITY           SKY/WX    TMP DP  RH WIND       PRES   REMARKS
PATUXENT RIVER MOSUNNY   84  67  56 E5        30.23F
BAY BRIDGE APT PTSUNNY   84  68  58 CALM      30.23F
LEONARDTOWN    SUNNY     82  64  54 E3        30.25S
DOVER          SUNNY     83  73  71 VRB5      30.23F
GEORGETOWN     NOT AVBL
EASTON         SUNNY     86  72  62 E6        30.27F
CAMBRIDGE      MOSUNNY   82  64  54 E8        30.22F
SALISBURY      SUNNY     85  62  46 E15       30.22F
OCEAN CITY     SUNNY     83  68  60 NE12      30.23S
WALLOPS ISLAND SUNNY     85  58  39 NE15      30.22F
ACCOMACK*      SUNNY     84  67  54 E10       30.21S
$$

NCZ012>017-030>032-281800-
NORTH CENTRAL AND EASTERN NORTH CAROLINA

CITY           SKY/WX    TMP DP  RH WIND       PRES   REMARKS
ROANOKE RAPIDS FAIR      82  72  69 NE9       30.19S
RALEIGH        MOSUNNY   86  68  54 E9G21     30.20F
ELIZABETH CITY PTSUNNY   85  75  72 NE16      30.17S
AHOSKIE*       SUNNY     85  73  67 NE7       30.18S
EDENTON*       CLOUDY    86  73  64 NE6       30.17S
CURRITUCK*       N/A     85  75  72 NE15G22   30.19R
KILL DEVIL HLS PTSUNNY   85  81  85 NE7       30.15R HX 101
MANTEO         MOSUNNY   85  77  77 E15       30.16S
CAPE HATTERAS  CLOUDY    80  76  87 NE3       30.14F
TARBORO*       PTSUNNY   87  74  65 N5        30.18S HX  96
GOLDSBORO      MOSUNNY   88  72  58 NE8G17    30.15F
WASHINGTON     MOSUNNY   86  74  68 N10       30.15S
GREENVILLE     MOSUNNY   86  73  66 NE10      30.16F
NEW BERN       CLOUDY    83  75  77 N7        30.14F
WILMINGTON     CLOUDY    84  74  71 NE10      30.13F
$$

VAZ048-281800-
ELSEWHERE

CITY           SKY/WX    TMP DP  RH WIND       PRES   REMARKS
HARRISBURG PA  MOSUNNY   87  67  51 SE7       30.23F
BALTIMORE      MOSUNNY   85  59  41 S5        30.23F
ANNAPOLIS      SUNNY     83  69  62 SE6       30.23F
ANDREWS AFB    SUNNY     84  65  51 NE8       30.23F
PHILADELPHIA   MOSUNNY   88  63  43 CALM      30.24F
HENDERSON NC   SUNNY     82  66  58 NE8       30.22S
GREENSBORO     MOSUNNY   85  66  53 E13       30.23F
ROCKY MOUNT    PTSUNNY   87  72  60 NE10      30.18S
$$

VAZ100-281800-
MARINE

STATION/POSITION TIME  TEMP    WIND        PRES    WAVE   SWELL
                       AIR SEA DIR/SP/G            HT/PER HT/PER
                 (UTC) (F)     (DEG/KT/KT) (MB)    (FT/S) (FT/S)
BRANDYWINE LGT   1600   79     170/  4/  4   N/A
CAPE MAY NJ      1600   81 76   90/  9/ 12 1023.7F
LEWES DE         1600   77 76   50/  8/  9 1024.0F
OCEAN-CITY-INLET 1600   80 76   60/  5/ 10 1024.2F
WACHAPREAGUE VA  1600   81 83   40/ 13/ 17 1023.1F
THOMAS POINT MD  1700   78 83   10/  4/  5 1025.1F
GOOSES REEF MD   1600   80 83   40/  6/  8 1024.6F   1
COVE POINT MD    1600   79      10/  5/  8 1024.6F
SOLOMONS ISLAND  1600   80 84   80/  5/  7   N/A
PINEY POINT MD   1600          110/  6/  7   N/A
POTOMAC MD       1600   79 83   60/  8/ 10 1022.8F   1
CAMBRIDGE MD     1600   81 84   70/  9/ 12 1023.0F
LEWISETTA VA     1600   80 83   80/  6/  8 1023.4S
RAPPAHANNOCK LGT 1600           60/  9/ 11 1023.4F
STINGRAY PT      1600   80 83  340/ 10/ 14 1023.5F   2/ 3
YORK RVR RNG VA  1600   80      50/ 11/ 12 1022.5F
YORKTOWN VA      1600   81 83   70/ 10/ 12 1022.7F
JAMESTOWN VA     1600   84 86   60/  6/ 12   N/A     0
DOMINION TERM VA 1600   81      80/ 10/ 14 1022.9F
KIPTOPEKE VA     1600      81   80/ 12/ 18   N/A
CHES BAY BRIDGE  1600   78 81   30/ 11/ 13 1022.5R
CAPE HENRY VA    1600   79      30/ 12/ 15   N/A
WILLOUBY STN VA  1600   80      70/ 12/ 13   N/A
CAPE HENRY BUOY  1612      80                N/A     4/ 6
1ST LANDING BUOY 1600   79 77   70/ 12/ 16 1022.4R   2/ 3
CAPE CHARLES BUO 1626      79                N/A     4/ 5
OFFSHORE WE BUOY 1621      80                N/A     4/ 6
64NM E OF VA BCH 1650   81 81   40/ 16/ 17 1021.2R   4/ 6   2/ 7
DUCK PIER NC     1600   80 77   40/ 14/ 15 1020.8F
44100 DUCK FRF   1605      80                N/A     4/ 5
44056 DUCK FRF   1611      79                N/A     4/ 6
OREGON INLET NC  1600   82 78   30/  8/  9 1020.9S
HATTERAS NC      1600   77 83   10/ 12/ 19 1020.9R
DIAMOND SHLS NC  1650   84 85   80/ 10/ 12 1020.4F   3/ 8   2/ 8
CAPE LOOKOUT NC  1600   83      40/  8/  9 1020.1R
$$



USA.gov is the U.S. government's official web portal to all federal, state and local government web resources and services.